Time,TemperatureF,DewpointF,PressureIn,WindDirection,WindDirectionDegrees,WindSpeedMPH,WindSpeedGustMPH,Humidity,HourlyPrecipIn,Conditions,Clouds,dailyrainin,SoftwareType,DateUTC
2013-08-07 00:03:00,-999.0,-99.9,26.49,North,-999,-999.0,-999.0,-999,0.00,,,0.00,weatherlink.com 1.10,2013-08-07 04:03:00,
2013-08-07 00:18:00,-999.0,-99.9,26.50,North,-999,-999.0,-999.0,-999,0.00,,,0.00,weatherlink.com 1.10,2013-08-07 04:18:00,
2013-08-07 00:33:00,-999.0,-99.9,26.49,North,-999,-999.0,-999.0,-999,0.00,,,0.00,weatherlink.com 1.10,2013-08-07 04:33:00,
2013-08-07 00:48:00,-999.0,-99.9,26.49,North,-999,-999.0,-999.0,-999,0.00,,,0.00,weatherlink.com 1.10,2013-08-07 04:48:00,
2013-08-07 01:03:00,-999.0,-99.9,26.49,North,-999,-999.0,-999.0,-999,0.00,,,0.00,weatherlink.com 1.10,2013-08-07 05:03:00,
2013-08-07 01:18:00,-999.0,-99.9,26.48,North,-999,-999.0,-999.0,-999,0.00,,,0.00,weatherlink.com 1.10,2013-08-07 05:18:00,
2013-08-07 01:33:00,-999.0,-99.9,26.48,North,-999,-999.0,-999.0,-999,0.00,,,0.00,weatherlink.com 1.10,2013-08-07 05:33:00,
2013-08-07 01:48:00,-999.0,-99.9,26.48,North,-999,-999.0,-999.0,-999,0.00,,,0.00,weatherlink.com 1.10,2013-08-07 05:48:00,
2013-08-07 02:03:00,-999.0,-99.9,26.48,North,-999,-999.0,-999.0,-999,0.00,,,0.00,weatherlink.com 1.10,2013-08-07 06:03:00,
2013-08-07 02:19:00,-999.0,-99.9,26.48,North,-999,-999.0,-999.0,-999,0.00,,,0.00,weatherlink.com 1.10,2013-08-07 06:19:00,
2013-08-07 02:34:00,-999.0,-99.9,26.47,North,-999,-999.0,-999.0,-999,0.00,,,0.00,weatherlink.com 1.10,2013-08-07 06:34:00,
2013-08-07 02:49:00,-999.0,-99.9,26.47,North,-999,-999.0,-999.0,-999,0.00,,,0.00,weatherlink.com 1.10,2013-08-07 06:49:00,
2013-08-07 03:04:00,-999.0,-99.9,26.47,North,-999,-999.0,-999.0,-999,0.00,,,0.00,weatherlink.com 1.10,2013-08-07 07:04:00,
2013-08-07 03:19:00,-999.0,-99.9,26.46,North,-999,-999.0,-999.0,-999,0.00,,,0.00,weatherlink.com 1.10,2013-08-07 07:19:00,
2013-08-07 03:34:00,-999.0,-99.9,26.46,North,-999,-999.0,-999.0,-999,0.00,,,0.00,weatherlink.com 1.10,2013-08-07 07:34:00,
2013-08-07 03:49:00,-999.0,-99.9,26.47,North,-999,-999.0,-999.0,-999,0.00,,,0.00,weatherlink.com 1.10,2013-08-07 07:49:00,
2013-08-07 04:04:00,-999.0,-99.9,26.47,North,-999,-999.0,-999.0,-999,0.00,,,0.00,weatherlink.com 1.10,2013-08-07 08:04:00,
2013-08-07 04:19:00,-999.0,-99.9,26.47,North,-999,-999.0,-999.0,-999,0.00,,,0.00,weatherlink.com 1.10,2013-08-07 08:19:00,
2013-08-07 04:34:00,-999.0,-99.9,26.48,North,-999,-999.0,-999.0,-999,0.00,,,0.00,weatherlink.com 1.10,2013-08-07 08:34:00,
2013-08-07 04:49:00,-999.0,-99.9,26.47,North,-999,-999.0,-999.0,-999,0.00,,,0.00,weatherlink.com 1.10,2013-08-07 08:49:00,
2013-08-07 05:04:00,-999.0,-99.9,26.47,North,-999,-999.0,-999.0,-999,0.00,,,0.00,weatherlink.com 1.10,2013-08-07 09:04:00,
2013-08-07 05:19:00,-999.0,-99.9,26.47,North,-999,-999.0,-999.0,-999,0.00,,,0.00,weatherlink.com 1.10,2013-08-07 09:19:00,
2013-08-07 05:34:00,-999.0,-99.9,26.47,North,-999,-999.0,-999.0,-999,0.00,,,0.00,weatherlink.com 1.10,2013-08-07 09:34:00,
2013-08-07 05:50:00,-999.0,-99.9,26.47,North,-999,-999.0,-999.0,-999,0.00,,,0.00,weatherlink.com 1.10,2013-08-07 09:50:00,
2013-08-07 06:05:00,-999.0,-99.9,26.48,North,-999,-999.0,-999.0,-999,0.00,,,0.00,weatherlink.com 1.10,2013-08-07 10:05:00,
2013-08-07 06:20:00,-999.0,-99.9,26.48,North,-999,-999.0,-999.0,-999,0.00,,,0.00,weatherlink.com 1.10,2013-08-07 10:20:00,
2013-08-07 06:35:00,-999.0,-99.9,26.48,North,-999,-999.0,-999.0,-999,0.00,,,0.00,weatherlink.com 1.10,2013-08-07 10:35:00,
2013-08-07 06:50:00,-999.0,-99.9,26.48,North,-999,-999.0,-999.0,-999,0.00,,,0.00,weatherlink.com 1.10,2013-08-07 10:50:00,
2013-08-07 07:05:00,-999.0,-99.9,26.48,North,-999,-999.0,-999.0,-999,0.00,,,0.00,weatherlink.com 1.10,2013-08-07 11:05:00,
2013-08-07 07:20:00,-999.0,-99.9,26.48,North,-999,-999.0,-999.0,-999,0.00,,,0.00,weatherlink.com 1.10,2013-08-07 11:20:00,
2013-08-07 07:35:00,-999.0,-99.9,26.49,North,-999,-999.0,-999.0,-999,0.00,,,0.00,weatherlink.com 1.10,2013-08-07 11:35:00,
2013-08-07 07:50:00,-999.0,-99.9,26.49,North,-999,-999.0,-999.0,-999,0.00,,,0.00,weatherlink.com 1.10,2013-08-07 11:50:00,
2013-08-07 08:05:00,-999.0,-99.9,26.50,North,-999,-999.0,-999.0,-999,0.00,,,0.00,weatherlink.com 1.10,2013-08-07 12:05:00,
2013-08-07 08:20:00,64.7,64.0,26.50,South,182,0.0,1.0,96,0.00,,,0.00,weatherlink.com 1.10,2013-08-07 12:20:00,
2013-08-07 08:35:00,65.2,64.0,26.50,South,182,0.0,2.0,96,0.00,,,0.00,weatherlink.com 1.10,2013-08-07 12:35:00,
2013-08-07 08:50:00,65.5,64.0,26.50,SSE,165,0.0,2.0,96,0.00,,,0.00,weatherlink.com 1.10,2013-08-07 12:50:00,
2013-08-07 09:05:00,65.6,65.0,26.50,SSE,165,0.0,3.0,96,0.00,,,0.00,weatherlink.com 1.10,2013-08-07 13:05:00,
2013-08-07 09:20:00,66.1,65.0,26.50,SSE,165,3.0,5.0,95,0.00,,,0.00,weatherlink.com 1.10,2013-08-07 13:20:00,
2013-08-07 09:35:00,66.6,64.0,26.50,SSE,165,3.0,5.0,92,0.00,,,0.00,weatherlink.com 1.10,2013-08-07 13:35:00,
2013-08-07 09:50:00,66.4,64.0,26.50,SSE,163,0.0,5.0,92,0.00,,,0.00,weatherlink.com 1.10,2013-08-07 13:50:00,
2013-08-07 10:05:00,66.0,64.0,26.50,SE,146,0.0,5.0,93,0.00,,,0.00,weatherlink.com 1.10,2013-08-07 14:05:00,
2013-08-07 10:20:00,66.0,65.0,26.51,SE,137,0.0,4.0,95,0.00,,,0.00,weatherlink.com 1.10,2013-08-07 14:20:00,
2013-08-07 10:36:00,66.1,65.0,26.51,SE,136,3.0,3.0,95,0.00,,,0.00,weatherlink.com 1.10,2013-08-07 14:36:00,
2013-08-07 10:51:00,66.1,65.0,26.51,SE,132,3.0,4.0,95,0.00,,,0.00,weatherlink.com 1.10,2013-08-07 14:51:00,
2013-08-07 11:06:00,66.1,65.0,26.51,SE,130,2.0,5.0,95,0.00,,,0.00,weatherlink.com 1.10,2013-08-07 15:06:00,
2013-08-07 11:21:00,66.3,65.0,26.52,SE,132,0.0,4.0,95,0.02,,,0.02,weatherlink.com 1.10,2013-08-07 15:21:00,
2013-08-07 11:36:00,66.1,65.0,26.52,SE,128,3.0,4.0,95,0.02,,,0.02,weatherlink.com 1.10,2013-08-07 15:36:00,
2013-08-07 11:51:00,66.3,65.0,26.52,SE,126,0.0,4.0,95,0.02,,,0.02,weatherlink.com 1.10,2013-08-07 15:51:00,
2013-08-07 12:06:00,66.3,65.0,26.52,SE,126,0.0,3.0,96,0.02,,,0.02,weatherlink.com 1.10,2013-08-07 16:06:00,
2013-08-07 12:21:00,66.8,66.0,26.51,SE,126,2.0,4.0,96,0.00,,,0.02,weatherlink.com 1.10,2013-08-07 16:21:00,
2013-08-07 12:36:00,66.6,66.0,26.51,SE,126,0.0,4.0,96,0.00,,,0.02,weatherlink.com 1.10,2013-08-07 16:36:00,
2013-08-07 12:51:00,67.3,66.0,26.51,South,170,2.0,7.0,95,0.00,,,0.02,weatherlink.com 1.10,2013-08-07 16:51:00,
2013-08-07 13:07:00,67.4,65.0,26.51,SSE,167,3.0,6.0,93,0.00,,,0.02,weatherlink.com 1.10,2013-08-07 17:07:00,
2013-08-07 13:21:00,66.6,65.0,26.51,South,174,3.0,8.0,94,0.00,,,0.02,weatherlink.com 1.10,2013-08-07 17:21:00,
2013-08-07 13:36:00,66.6,65.0,26.51,South,170,5.0,7.0,95,0.00,,,0.02,weatherlink.com 1.10,2013-08-07 17:36:00,
2013-08-07 13:51:00,66.6,65.0,26.51,South,180,4.0,9.0,94,0.04,,,0.06,weatherlink.com 1.10,2013-08-07 17:51:00,
2013-08-07 14:06:00,66.6,65.0,26.50,South,178,3.0,7.0,95,0.10,,,0.12,weatherlink.com 1.10,2013-08-07 18:06:00,
2013-08-07 14:21:00,66.8,66.0,26.51,South,183,1.0,9.0,96,0.10,,,0.12,weatherlink.com 1.10,2013-08-07 18:21:00,
2013-08-07 14:36:00,66.9,66.0,26.50,South,190,2.0,5.0,96,0.10,,,0.12,weatherlink.com 1.10,2013-08-07 18:36:00,
2013-08-07 14:51:00,66.8,66.0,26.50,South,190,0.0,5.0,96,0.06,,,0.13,weatherlink.com 1.10,2013-08-07 18:51:00,
2013-08-07 15:06:00,66.3,65.0,26.50,SSE,155,1.0,9.0,95,0.01,,,0.13,weatherlink.com 1.10,2013-08-07 19:06:00,
2013-08-07 15:21:00,65.8,64.0,26.50,South,176,0.0,10.0,95,0.02,,,0.14,weatherlink.com 1.10,2013-08-07 19:21:00,
2013-08-07 15:36:00,65.6,64.0,26.50,South,189,0.0,10.0,95,0.02,,,0.14,weatherlink.com 1.10,2013-08-07 19:36:00,
2013-08-07 15:51:00,65.5,64.0,26.49,SSW,197,3.0,6.0,95,0.01,,,0.14,weatherlink.com 1.10,2013-08-07 19:51:00,
2013-08-07 16:06:00,65.5,64.0,26.49,SSW,194,1.0,7.0,95,0.01,,,0.14,weatherlink.com 1.10,2013-08-07 20:06:00,
2013-08-07 16:21:00,65.5,64.0,26.49,SSW,194,1.0,6.0,96,0.00,,,0.14,weatherlink.com 1.10,2013-08-07 20:21:00,
2013-08-07 16:36:00,65.6,64.0,26.49,SSW,194,7.0,9.0,95,0.00,,,0.14,weatherlink.com 1.10,2013-08-07 20:36:00,
2013-08-07 16:51:00,66.0,65.0,26.49,SSW,196,4.0,7.0,95,0.00,,,0.14,weatherlink.com 1.10,2013-08-07 20:51:00,
2013-08-07 17:06:00,66.3,65.0,26.48,SSW,192,7.0,9.0,94,0.00,,,0.14,weatherlink.com 1.10,2013-08-07 21:06:00,
2013-08-07 17:21:00,66.4,64.0,26.48,South,175,0.0,9.0,93,0.00,,,0.14,weatherlink.com 1.10,2013-08-07 21:21:00,
2013-08-07 17:36:00,66.6,64.0,26.48,South,190,4.0,8.0,92,0.00,,,0.14,weatherlink.com 1.10,2013-08-07 21:36:00,
2013-08-07 17:51:00,66.3,64.0,26.48,SSW,196,3.0,7.0,92,0.00,,,0.14,weatherlink.com 1.10,2013-08-07 21:51:00,
2013-08-07 18:06:00,66.3,64.0,26.48,SSW,199,0.0,5.0,93,0.00,,,0.14,weatherlink.com 1.10,2013-08-07 22:06:00,
2013-08-07 18:21:00,66.3,64.0,26.48,SSW,198,0.0,7.0,93,0.00,,,0.14,weatherlink.com 1.10,2013-08-07 22:21:00,
2013-08-07 18:36:00,66.3,64.0,26.48,South,190,4.0,7.0,93,0.00,,,0.14,weatherlink.com 1.10,2013-08-07 22:36:00,
2013-08-07 18:51:00,-999.0,-99.9,26.48,North,-999,-999.0,-999.0,-999,0.00,,,0.14,weatherlink.com 1.10,2013-08-07 22:51:00,
2013-08-07 19:06:00,-999.0,-99.9,26.48,North,-999,-999.0,-999.0,-999,0.00,,,0.14,weatherlink.com 1.10,2013-08-07 23:06:00,
2013-08-07 19:21:00,-999.0,-99.9,26.48,North,-999,-999.0,-999.0,-999,0.00,,,0.14,weatherlink.com 1.10,2013-08-07 23:21:00,
2013-08-07 19:36:00,-999.0,-99.9,26.48,North,-999,-999.0,-999.0,-999,0.00,,,0.14,weatherlink.com 1.10,2013-08-07 23:36:00,
2013-08-07 19:51:00,-999.0,-99.9,26.48,North,-999,-999.0,-999.0,-999,0.00,,,0.14,weatherlink.com 1.10,2013-08-07 23:51:00,
2013-08-07 20:06:00,-999.0,-99.9,26.48,North,-999,-999.0,-999.0,-999,0.00,,,0.14,weatherlink.com 1.10,2013-08-08 00:06:00,
2013-08-07 20:21:00,-999.0,-99.9,26.48,North,-999,-999.0,-999.0,-999,0.00,,,0.14,weatherlink.com 1.10,2013-08-08 00:21:00,
2013-08-07 20:36:00,-999.0,-99.9,26.48,North,-999,-999.0,-999.0,-999,0.00,,,0.14,weatherlink.com 1.10,2013-08-08 00:36:00,
2013-08-07 20:51:00,-999.0,-99.9,26.48,North,-999,-999.0,-999.0,-999,0.00,,,0.14,weatherlink.com 1.10,2013-08-08 00:51:00,
2013-08-07 21:07:00,-999.0,-99.9,26.48,North,-999,-999.0,-999.0,-999,0.00,,,0.14,weatherlink.com 1.10,2013-08-08 01:07:00,
2013-08-07 21:22:00,-999.0,-99.9,26.48,North,-999,-999.0,-999.0,-999,0.00,,,0.14,weatherlink.com 1.10,2013-08-08 01:22:00,
2013-08-07 21:37:00,-999.0,-99.9,26.48,North,-999,-999.0,-999.0,-999,0.00,,,0.14,weatherlink.com 1.10,2013-08-08 01:37:00,
2013-08-07 21:52:00,-999.0,-99.9,26.49,North,-999,-999.0,-999.0,-999,0.00,,,0.14,weatherlink.com 1.10,2013-08-08 01:52:00,
2013-08-07 22:07:00,-999.0,-99.9,26.49,North,-999,-999.0,-999.0,-999,0.00,,,0.14,weatherlink.com 1.10,2013-08-08 02:07:00,
2013-08-07 22:22:00,-999.0,-99.9,26.49,North,-999,-999.0,-999.0,-999,0.00,,,0.14,weatherlink.com 1.10,2013-08-08 02:22:00,
2013-08-07 22:37:00,-999.0,-99.9,26.50,North,-999,-999.0,-999.0,-999,0.00,,,0.14,weatherlink.com 1.10,2013-08-08 02:37:00,
2013-08-07 22:52:00,-999.0,-99.9,26.50,North,-999,-999.0,-999.0,-999,0.00,,,0.14,weatherlink.com 1.10,2013-08-08 02:52:00,
2013-08-07 23:07:00,-999.0,-99.9,26.50,North,-999,-999.0,-999.0,-999,0.00,,,0.14,weatherlink.com 1.10,2013-08-08 03:07:00,
2013-08-07 23:22:00,-999.0,-99.9,26.50,North,-999,-999.0,-999.0,-999,0.00,,,0.14,weatherlink.com 1.10,2013-08-08 03:22:00,
2013-08-07 23:37:00,-999.0,-99.9,26.50,North,-999,-999.0,-999.0,-999,0.00,,,0.14,weatherlink.com 1.10,2013-08-08 03:37:00,
2013-08-07 23:52:00,-999.0,-99.9,26.50,North,-999,-999.0,-999.0,-999,0.00,,,0.14,weatherlink.com 1.10,2013-08-08 03:52:00,